Location: Paris
(18.5000°N, 73.9167°W)
Time: 01:41:35
(UTC+00:00)

DELTA 2 R/B (1) - Pass Details

Date: 18 April 2024
Orbit: 789 x 801 km, 39.6° (Epoch: 24 May)

Event Time Altitude Azimuth Distance (km) Brightness Sun altitude
Rises 23:40:14 0° 316° (NW) 3,296 7.9 -7.0°
Reaches altitude 10° 23:42:53 10° 325° (NW) 2,365 6.9 -7.6°
Maximum altitude 23:48:04 38° 32° (NNE) 1,203 4.4 -8.7°
Enters shadow 23:52:47 12° 98° (E) 2,218 5.2 -9.8°
